Time,TemperatureF,DewpointF,PressureIn,WindDirection,WindDirectionDegrees,WindSpeedMPH,WindSpeedGustMPH,Humidity,HourlyPrecipIn,Conditions,Clouds,dailyrainin,SolarRadiationWatts/m^2,SoftwareType,DateUTC
2013-02-24 00:00:00,64.2,61.2,30.07,NE,49,11.5,11.5,90,0.01,RA,,0.00,0.0,WeatherDisplay:10.37,2013-02-24 10:00:00,
2013-02-24 00:05:00,64.2,61.2,30.06,ENE,64,8.1,8.1,90,0.00,RA,,0.00,0.0,WeatherDisplay:10.37,2013-02-24 10:05:00,
2013-02-24 00:10:00,64.2,60.9,30.06,North,355,10.4,10.4,89,0.00,CLR,,0.00,0.0,WeatherDisplay:10.37,2013-02-24 10:10:00,
2013-02-24 00:15:00,64.3,61.0,30.06,NNE,23,16.1,16.1,89,0.00,CLR,,0.00,0.0,WeatherDisplay:10.37,2013-02-24 10:15:00,
2013-02-24 00:20:00,64.4,61.1,30.06,NNW,346,9.2,9.2,89,0.00,CLR,,0.00,0.0,WeatherDisplay:10.37,2013-02-24 10:20:00,
2013-02-24 00:25:00,64.4,61.1,30.06,North,355,6.0,6.0,89,0.00,CLR,,0.00,0.0,WeatherDisplay:10.37,2013-02-24 10:25:00,
2013-02-24 00:31:00,64.3,60.7,30.06,ENE,57,11.0,11.0,88,0.00,CLR,,0.00,0.0,WeatherDisplay:10.37,2013-02-24 10:31:00,
2013-02-24 00:36:00,64.3,60.7,30.06,NE,42,11.5,11.5,88,0.00,CLR,,0.00,0.0,WeatherDisplay:10.37,2013-02-24 10:36:00,
2013-02-24 00:40:00,64.3,60.7,30.06,NNE,12,9.2,9.2,88,0.00,CLR,,0.00,0.0,WeatherDisplay:10.37,2013-02-24 10:40:00,
2013-02-24 00:45:00,64.4,60.8,30.06,ENE,61,11.5,11.5,88,0.00,CLR,,0.00,0.0,WeatherDisplay:10.37,2013-02-24 10:45:00,
2013-02-24 00:50:00,64.4,60.8,30.06,ENE,61,11.5,11.5,88,0.00,CLR,,0.00,0.0,WeatherDisplay:10.37,2013-02-24 10:50:00,
2013-02-24 00:55:00,64.3,61.0,30.06,East,79,11.5,11.5,89,0.00,RA,,0.03,0.0,WeatherDisplay:10.37,2013-02-24 10:55:00,
2013-02-24 01:01:00,64.0,60.7,30.05,ENE,74,13.8,13.8,89,0.03,RA,,0.03,0.0,WeatherDisplay:10.37,2013-02-24 11:01:00,
2013-02-24 01:06:00,63.8,60.8,30.04,NNE,29,13.8,13.8,90,0.03,,,0.03,0.0,WeatherDisplay:10.37,2013-02-24 11:06:00,
2013-02-24 01:10:00,63.5,60.5,30.05,North,5,11.5,11.5,90,0.03,CLR,,0.03,0.0,WeatherDisplay:10.37,2013-02-24 11:10:00,
2013-02-24 01:15:00,63.6,60.3,30.05,NE,42,15.0,15.0,89,0.03,CLR,,0.03,0.0,WeatherDisplay:10.37,2013-02-24 11:15:00,
2013-02-24 01:20:00,63.7,60.4,30.05,ENE,59,16.1,16.1,89,0.03,CLR,,0.03,0.0,WeatherDisplay:10.37,2013-02-24 11:20:00,
2013-02-24 01:26:00,63.7,60.4,30.05,ENE,63,10.4,10.4,89,0.03,CLR,,0.03,0.0,WeatherDisplay:10.37,2013-02-24 11:26:00,
2013-02-24 01:31:00,63.6,60.3,30.05,ENE,57,8.1,8.1,89,0.03,CLR,,0.03,0.0,WeatherDisplay:10.37,2013-02-24 11:31:00,
2013-02-24 01:36:00,63.6,60.3,30.05,NE,48,9.2,9.2,89,0.03,CLR,,0.03,0.0,WeatherDisplay:10.37,2013-02-24 11:36:00,
2013-02-24 01:41:00,63.6,60.0,30.05,North,355,11.5,11.5,88,0.03,CLR,,0.03,0.0,WeatherDisplay:10.37,2013-02-24 11:41:00,
2013-02-24 01:45:00,63.6,60.0,30.05,NNE,19,11.5,11.5,88,0.03,CLR,,0.03,0.0,WeatherDisplay:10.37,2013-02-24 11:45:00,
2013-02-24 01:51:00,63.6,60.0,30.05,ENE,63,10.0,10.0,88,0.03,CLR,,0.03,0.0,WeatherDisplay:10.37,2013-02-24 11:51:00,
2013-02-24 01:55:00,63.7,60.1,30.04,NNE,32,11.5,11.5,88,0.00,CLR,,0.03,0.0,WeatherDisplay:10.37,2013-02-24 11:55:00,
2013-02-24 02:01:00,63.8,59.9,30.04,ENE,62,9.2,9.2,87,0.00,CLR,,0.03,0.0,WeatherDisplay:10.37,2013-02-24 12:01:00,
2013-02-24 02:06:00,63.8,59.9,30.04,ESE,102,10.4,10.4,87,0.00,CLR,,0.03,0.0,WeatherDisplay:10.37,2013-02-24 12:06:00,
2013-02-24 02:11:00,64.0,59.7,30.04,NNE,15,10.4,10.4,86,0.00,CLR,,0.03,0.0,WeatherDisplay:10.37,2013-02-24 12:11:00,
2013-02-24 02:16:00,64.0,59.7,30.04,NE,42,12.7,12.7,86,0.00,CLR,,0.03,0.0,WeatherDisplay:10.37,2013-02-24 12:16:00,
2013-02-24 02:20:00,64.0,59.7,30.03,NNE,29,11.5,11.5,86,0.00,CLR,,0.03,0.0,WeatherDisplay:10.37,2013-02-24 12:20:00,
2013-02-24 02:25:00,64.0,59.4,30.03,ENE,59,10.4,10.4,85,0.00,CLR,,0.03,0.0,WeatherDisplay:10.37,2013-02-24 12:25:00,
2013-02-24 02:31:00,64.1,59.5,30.03,NNW,341,9.2,9.2,85,0.00,CLR,,0.03,0.0,WeatherDisplay:10.37,2013-02-24 12:31:00,
2013-02-24 02:36:00,64.2,59.6,30.03,NNE,15,6.9,6.9,85,0.00,CLR,,0.03,0.0,WeatherDisplay:10.37,2013-02-24 12:36:00,
2013-02-24 02:41:00,64.1,59.5,30.03,ENE,65,9.2,9.2,85,0.00,CLR,,0.03,0.0,WeatherDisplay:10.37,2013-02-24 12:41:00,
2013-02-24 02:46:00,64.1,59.5,30.03,NNW,336,10.4,10.4,85,0.00,CLR,,0.03,0.0,WeatherDisplay:10.37,2013-02-24 12:46:00,
2013-02-24 02:51:00,64.1,59.5,30.03,East,81,10.4,10.4,85,0.00,CLR,,0.03,0.0,WeatherDisplay:10.37,2013-02-24 12:51:00,
2013-02-24 02:56:00,64.2,59.3,30.03,ENE,65,16.0,16.0,84,0.00,CLR,,0.03,0.0,WeatherDisplay:10.37,2013-02-24 12:56:00,
2013-02-24 03:01:00,64.3,59.4,30.03,NE,36,6.9,6.9,84,0.00,CLR,,0.03,0.0,WeatherDisplay:10.37,2013-02-24 13:01:00,
2013-02-24 03:06:00,64.4,59.5,30.03,East,94,8.1,8.1,84,0.00,CLR,,0.03,0.0,WeatherDisplay:10.37,2013-02-24 13:06:00,
2013-02-24 03:11:00,64.3,59.7,30.02,NNE,19,10.4,10.4,85,0.00,CLR,,0.03,0.0,WeatherDisplay:10.37,2013-02-24 13:11:00,
2013-02-24 03:16:00,64.2,59.6,30.02,ENE,61,10.4,10.4,85,0.00,CLR,,0.03,0.0,WeatherDisplay:10.37,2013-02-24 13:16:00,
2013-02-24 03:21:00,64.3,59.4,30.02,ENE,57,12.0,12.0,84,0.00,CLR,,0.03,0.0,WeatherDisplay:10.37,2013-02-24 13:21:00,
2013-02-24 03:26:00,64.3,59.4,30.02,ENE,67,11.5,11.5,84,0.00,CLR,,0.03,0.0,WeatherDisplay:10.37,2013-02-24 13:26:00,
2013-02-24 03:31:00,64.4,59.5,30.02,NE,55,15.0,15.0,84,0.00,CLR,,0.03,0.0,WeatherDisplay:10.37,2013-02-24 13:31:00,
2013-02-24 03:36:00,64.5,59.6,30.02,East,85,12.7,12.7,84,0.00,CLR,,0.03,0.0,WeatherDisplay:10.37,2013-02-24 13:36:00,
2013-02-24 03:41:00,64.4,59.5,30.02,NNE,15,11.5,11.5,84,0.00,CLR,,0.03,0.0,WeatherDisplay:10.37,2013-02-24 13:41:00,
2013-02-24 03:46:00,64.4,59.1,30.01,NNE,28,9.2,9.2,83,0.00,CLR,,0.03,0.0,WeatherDisplay:10.37,2013-02-24 13:46:00,
2013-02-24 03:51:00,64.4,59.1,30.01,NE,53,10.4,10.4,83,0.00,CLR,,0.03,0.0,WeatherDisplay:10.37,2013-02-24 13:51:00,
2013-02-24 03:56:00,64.4,59.1,30.02,East,80,11.5,11.5,83,0.00,CLR,,0.03,0.0,WeatherDisplay:10.37,2013-02-24 13:56:00,
2013-02-24 04:01:00,64.4,59.1,30.02,NNE,25,10.4,10.4,83,0.00,CLR,,0.03,0.0,WeatherDisplay:10.37,2013-02-24 14:01:00,
2013-02-24 04:06:00,64.4,59.1,30.02,NNE,17,8.1,8.1,83,0.00,CLR,,0.03,0.0,WeatherDisplay:10.37,2013-02-24 14:06:00,
2013-02-24 04:11:00,64.3,59.0,30.01,NE,47,13.8,13.8,83,0.00,CLR,,0.03,0.0,WeatherDisplay:10.37,2013-02-24 14:11:00,
2013-02-24 04:16:00,64.3,59.0,30.01,ENE,76,15.0,15.0,83,0.00,CLR,,0.03,0.0,WeatherDisplay:10.37,2013-02-24 14:16:00,
2013-02-24 04:21:00,64.3,59.0,30.01,East,84,12.7,12.7,83,0.00,CLR,,0.03,0.0,WeatherDisplay:10.37,2013-02-24 14:21:00,
2013-02-24 04:26:00,64.4,59.1,30.01,NE,49,10.4,10.4,83,0.00,CLR,,0.03,0.0,WeatherDisplay:10.37,2013-02-24 14:26:00,
2013-02-24 04:31:00,64.4,59.1,30.01,ENE,59,13.0,13.0,83,0.00,CLR,,0.03,0.0,WeatherDisplay:10.37,2013-02-24 14:31:00,
2013-02-24 04:36:00,64.5,59.2,30.01,ENE,74,12.7,12.7,83,0.00,CLR,,0.03,0.0,WeatherDisplay:10.37,2013-02-24 14:36:00,
2013-02-24 04:41:00,64.5,58.9,30.01,ENE,63,9.2,9.2,82,0.00,CLR,,0.03,0.0,WeatherDisplay:10.37,2013-02-24 14:41:00,
2013-02-24 04:46:00,64.5,58.9,30.01,NE,49,12.0,12.0,82,0.00,CLR,,0.03,0.0,WeatherDisplay:10.37,2013-02-24 14:46:00,
2013-02-24 04:51:00,64.5,58.9,30.01,ENE,71,11.5,11.5,82,0.00,CLR,,0.03,0.0,WeatherDisplay:10.37,2013-02-24 14:51:00,
2013-02-24 04:56:00,64.4,58.8,30.01,NNE,27,12.7,12.7,82,0.00,CLR,,0.03,0.0,WeatherDisplay:10.37,2013-02-24 14:56:00,
2013-02-24 05:01:00,64.4,58.4,30.01,East,88,9.2,9.2,81,0.00,CLR,,0.03,0.0,WeatherDisplay:10.37,2013-02-24 15:01:00,
2013-02-24 05:06:00,64.4,58.4,30.01,NNE,29,12.7,12.7,81,0.00,CLR,,0.03,0.0,WeatherDisplay:10.37,2013-02-24 15:06:00,
2013-02-24 05:11:00,64.4,58.4,30.01,NE,44,13.8,13.8,81,0.00,CLR,,0.03,0.0,WeatherDisplay:10.37,2013-02-24 15:11:00,
2013-02-24 05:16:00,64.3,58.3,30.01,North,5,10.4,10.4,81,0.00,CLR,,0.03,0.0,WeatherDisplay:10.37,2013-02-24 15:16:00,
2013-02-24 05:21:00,64.3,58.3,30.01,North,360,8.1,8.1,81,0.00,CLR,,0.03,0.0,WeatherDisplay:10.37,2013-02-24 15:21:00,
2013-02-24 05:26:00,64.3,58.0,30.02,NE,40,11.5,11.5,80,0.00,CLR,,0.03,0.0,WeatherDisplay:10.37,2013-02-24 15:26:00,
2013-02-24 05:31:00,64.4,58.1,30.02,NE,38,11.5,11.5,80,0.00,CLR,,0.03,0.0,WeatherDisplay:10.37,2013-02-24 15:31:00,
2013-02-24 05:36:00,64.3,58.0,30.02,NNW,344,15.0,15.0,80,0.00,CLR,,0.03,0.0,WeatherDisplay:10.37,2013-02-24 15:36:00,
2013-02-24 05:41:00,64.3,58.0,30.02,NE,53,17.3,17.3,80,0.00,CLR,,0.03,0.0,WeatherDisplay:10.37,2013-02-24 15:41:00,
2013-02-24 05:46:00,64.3,58.0,30.02,NE,51,11.5,11.5,80,0.00,CLR,,0.03,0.0,WeatherDisplay:10.37,2013-02-24 15:46:00,
2013-02-24 05:51:00,64.3,58.0,30.03,NNE,22,8.1,8.1,80,0.00,CLR,,0.03,0.0,WeatherDisplay:10.37,2013-02-24 15:51:00,
2013-02-24 05:56:00,64.3,58.0,30.03,ENE,61,11.0,11.0,80,0.00,CLR,,0.03,0.0,WeatherDisplay:10.37,2013-02-24 15:56:00,
2013-02-24 06:01:00,64.2,58.2,30.03,NE,46,11.5,11.5,81,0.00,CLR,,0.03,0.0,WeatherDisplay:10.37,2013-02-24 16:01:00,
2013-02-24 06:06:00,64.3,58.3,30.03,North,355,9.2,9.2,81,0.00,CLR,,0.03,0.0,WeatherDisplay:10.37,2013-02-24 16:06:00,
2013-02-24 06:11:00,64.2,58.2,30.03,North,355,13.0,13.0,81,0.00,CLR,,0.03,0.0,WeatherDisplay:10.37,2013-02-24 16:11:00,
2013-02-24 06:16:00,64.3,58.3,30.03,ENE,65,11.5,11.5,81,0.00,CLR,,0.03,0.0,WeatherDisplay:10.37,2013-02-24 16:16:00,
2013-02-24 06:21:00,64.4,58.4,30.03,ENE,65,11.5,11.5,81,0.00,CLR,,0.03,0.0,WeatherDisplay:10.37,2013-02-24 16:21:00,
2013-02-24 06:26:00,64.4,58.4,30.03,ENE,63,9.2,9.2,81,0.00,CLR,,0.03,0.0,WeatherDisplay:10.37,2013-02-24 16:26:00,
2013-02-24 06:31:00,64.4,58.4,30.02,ENE,65,9.2,9.2,81,0.00,CLR,,0.03,0.0,WeatherDisplay:10.37,2013-02-24 16:31:00,
2013-02-24 06:36:00,64.4,58.1,30.03,NNW,328,8.1,8.1,80,0.00,CLR,,0.03,0.0,WeatherDisplay:10.37,2013-02-24 16:36:00,
2013-02-24 06:41:00,64.5,58.2,30.02,NE,34,10.4,10.4,80,0.00,CLR,,0.03,0.0,WeatherDisplay:10.37,2013-02-24 16:41:00,
2013-02-24 06:46:00,64.5,58.2,30.03,NE,34,15.0,15.0,80,0.00,CLR,,0.03,0.0,WeatherDisplay:10.37,2013-02-24 16:46:00,
2013-02-24 06:51:00,64.5,58.5,30.03,NE,40,15.0,15.0,81,0.00,CLR,,0.03,0.0,WeatherDisplay:10.37,2013-02-24 16:51:00,
2013-02-24 06:56:00,64.6,58.6,30.03,NNW,344,6.9,6.9,81,0.00,CLR,,0.03,5.0,WeatherDisplay:10.37,2013-02-24 16:56:00,
2013-02-24 07:01:00,64.5,58.2,30.03,North,355,10.4,10.4,80,0.00,CLR,,0.03,7.0,WeatherDisplay:10.37,2013-02-24 17:01:00,
2013-02-24 07:06:00,64.4,58.1,30.03,NE,36,12.7,12.7,80,0.00,BKN,,0.03,11.0,WeatherDisplay:10.37,2013-02-24 17:06:00,
2013-02-24 07:11:00,64.3,58.3,30.04,NE,34,8.1,8.1,81,0.00,BKN,,0.03,12.0,WeatherDisplay:10.37,2013-02-24 17:11:00,
2013-02-24 07:16:00,64.3,58.3,30.04,NE,51,13.8,13.8,81,0.00,BKN,,0.03,16.0,WeatherDisplay:10.37,2013-02-24 17:16:00,
2013-02-24 07:21:00,64.4,58.4,30.04,ENE,71,11.5,11.5,81,0.00,BKN,,0.03,23.0,WeatherDisplay:10.37,2013-02-24 17:21:00,
2013-02-24 07:26:00,64.5,58.5,30.04,NNE,22,10.4,10.4,81,0.00,BKN,,0.03,23.0,WeatherDisplay:10.37,2013-02-24 17:26:00,
2013-02-24 07:31:00,64.5,58.5,30.04,NE,49,11.5,11.5,81,0.00,CLR,,0.03,30.0,WeatherDisplay:10.37,2013-02-24 17:31:00,
2013-02-24 07:36:00,64.6,58.6,30.04,ENE,74,6.9,6.9,81,0.00,SCT,,0.03,53.0,WeatherDisplay:10.37,2013-02-24 17:36:00,
2013-02-24 07:41:00,64.7,58.7,30.04,NE,49,10.4,10.4,81,0.00,CLR,,0.03,95.0,WeatherDisplay:10.37,2013-02-24 17:41:00,
2013-02-24 07:46:00,64.9,58.9,30.05,North,360,8.1,8.1,81,0.00,CLR,,0.03,98.0,WeatherDisplay:10.37,2013-02-24 17:46:00,
2013-02-24 07:51:00,65.2,59.2,30.05,NNE,27,11.5,11.5,81,0.00,CLR,,0.03,135.0,WeatherDisplay:10.37,2013-02-24 17:51:00,
2013-02-24 07:56:00,65.3,59.3,30.05,NNE,33,6.9,6.9,81,0.00,CLR,,0.03,167.0,WeatherDisplay:10.37,2013-02-24 17:56:00,
2013-02-24 08:01:00,65.5,59.2,30.05,NNE,31,8.1,8.1,80,0.00,CLR,,0.03,179.0,WeatherDisplay:10.37,2013-02-24 18:01:00,
2013-02-24 08:06:00,65.8,59.5,30.05,NE,44,10.0,10.0,80,0.00,CLR,,0.03,216.0,WeatherDisplay:10.37,2013-02-24 18:06:00,
2013-02-24 08:11:00,66.0,59.3,30.05,East,80,9.2,9.2,79,0.00,CLR,,0.03,248.0,WeatherDisplay:10.37,2013-02-24 18:11:00,
2013-02-24 08:16:00,66.2,59.5,30.05,ENE,61,8.1,8.1,79,0.00,CLR,,0.03,274.0,WeatherDisplay:10.37,2013-02-24 18:16:00,
2013-02-24 08:21:00,66.4,59.3,30.05,NE,55,10.4,10.4,78,0.00,CLR,,0.03,269.0,WeatherDisplay:10.37,2013-02-24 18:21:00,
2013-02-24 08:26:00,66.5,59.1,30.06,NNE,15,12.0,12.0,77,0.00,CLR,,0.03,288.0,WeatherDisplay:10.37,2013-02-24 18:26:00,
2013-02-24 08:31:00,66.5,59.4,30.05,ENE,63,9.2,9.2,78,0.00,CLR,,0.03,251.0,WeatherDisplay:10.37,2013-02-24 18:31:00,
2013-02-24 08:36:00,66.7,59.6,30.05,NNE,24,10.4,10.4,78,0.00,CLR,,0.03,397.0,WeatherDisplay:10.37,2013-02-24 18:36:00,
2013-02-24 08:41:00,66.9,59.8,30.06,NE,35,10.0,10.0,78,0.00,CLR,,0.03,311.0,WeatherDisplay:10.37,2013-02-24 18:41:00,
2013-02-24 08:46:00,66.9,60.2,30.06,NE,43,6.9,6.9,79,0.00,BKN,,0.03,448.0,WeatherDisplay:10.37,2013-02-24 18:46:00,
2013-02-24 08:51:00,67.1,60.4,30.06,NE,45,4.6,4.6,79,0.00,CLR,,0.03,445.0,WeatherDisplay:10.37,2013-02-24 18:51:00,
2013-02-24 08:56:00,67.6,60.9,30.06,ENE,74,3.5,3.5,79,0.00,CLR,,0.03,513.0,WeatherDisplay:10.37,2013-02-24 18:56:00,
2013-02-24 09:01:00,68.0,60.9,30.06,East,97,11.5,11.5,78,0.00,BKN,,0.03,141.0,WeatherDisplay:10.37,2013-02-24 19:01:00,
2013-02-24 09:06:00,68.1,60.6,30.06,East,83,11.5,11.5,77,0.00,BKN,,0.03,167.0,WeatherDisplay:10.37,2013-02-24 19:06:00,
2013-02-24 09:11:00,68.1,60.6,30.06,NE,42,4.6,4.6,77,0.00,SCT,,0.03,209.0,WeatherDisplay:10.37,2013-02-24 19:11:00,
2013-02-24 09:16:00,68.2,60.7,30.06,NE,40,9.2,9.2,77,0.00,CLR,,0.03,336.0,WeatherDisplay:10.37,2013-02-24 19:16:00,
2013-02-24 09:21:00,68.7,60.8,30.06,ENE,78,9.2,9.2,76,0.00,BKN,,0.03,230.0,WeatherDisplay:10.37,2013-02-24 19:21:00,
2013-02-24 09:26:00,69.0,61.1,30.07,NE,34,10.4,10.4,76,0.00,CLR,,0.03,698.0,WeatherDisplay:10.37,2013-02-24 19:26:00,
2013-02-24 09:31:00,69.4,61.1,30.07,NE,53,9.0,9.0,75,0.00,CLR,,0.03,631.0,WeatherDisplay:10.37,2013-02-24 19:31:00,
2013-02-24 09:36:00,69.8,61.1,30.07,NE,53,6.9,6.9,74,0.00,CLR,,0.03,585.0,WeatherDisplay:10.37,2013-02-24 19:36:00,
2013-02-24 09:41:00,70.1,60.7,30.07,North,5,8.1,8.1,72,0.00,CLR,,0.03,621.0,WeatherDisplay:10.37,2013-02-24 19:41:00,
2013-02-24 09:46:00,70.6,61.5,30.07,ENE,69,8.1,8.1,73,0.00,CLR,,0.03,759.0,WeatherDisplay:10.37,2013-02-24 19:46:00,
2013-02-24 09:51:00,71.2,61.3,30.07,ENE,64,11.5,11.5,71,0.00,CLR,,0.03,826.0,WeatherDisplay:10.37,2013-02-24 19:51:00,
2013-02-24 09:56:00,71.8,61.5,30.07,ENE,57,11.5,11.5,70,0.00,CLR,,0.03,721.0,WeatherDisplay:10.37,2013-02-24 19:56:00,
2013-02-24 10:01:00,71.7,61.4,30.07,NE,48,12.7,12.7,70,0.00,BKN,,0.03,272.0,WeatherDisplay:10.37,2013-02-24 20:01:00,
2013-02-24 10:06:00,71.8,61.5,30.07,ESE,109,8.1,8.1,70,0.00,CLR,,0.03,663.0,WeatherDisplay:10.37,2013-02-24 20:06:00,
2013-02-24 10:11:00,71.7,61.8,30.07,East,98,11.5,11.5,71,0.00,CLR,,0.03,663.0,WeatherDisplay:10.37,2013-02-24 20:11:00,
2013-02-24 10:16:00,71.8,61.1,30.06,NE,55,12.7,12.7,69,0.00,CLR,,0.03,694.0,WeatherDisplay:10.37,2013-02-24 20:16:00,
2013-02-24 10:21:00,72.2,61.9,30.07,SE,127,6.9,6.9,70,0.00,CLR,,0.03,744.0,WeatherDisplay:10.37,2013-02-24 20:21:00,
2013-02-24 10:26:00,72.6,62.3,30.07,North,351,4.6,4.6,70,0.00,CLR,,0.03,744.0,WeatherDisplay:10.37,2013-02-24 20:26:00,
2013-02-24 10:31:00,72.9,61.7,30.07,ENE,72,4.6,4.6,68,0.00,CLR,,0.03,868.0,WeatherDisplay:10.37,2013-02-24 20:31:00,
2013-02-24 10:36:00,72.9,61.7,30.07,NE,46,8.1,8.1,68,0.00,CLR,,0.03,833.0,WeatherDisplay:10.37,2013-02-24 20:36:00,
2013-02-24 10:41:00,72.9,61.7,30.06,NE,50,10.4,10.4,68,0.00,CLR,,0.03,823.0,WeatherDisplay:10.37,2013-02-24 20:41:00,
2013-02-24 10:46:00,72.6,61.4,30.07,ENE,65,11.5,11.5,68,0.00,CLR,,0.03,914.0,WeatherDisplay:10.37,2013-02-24 20:46:00,
2013-02-24 10:51:00,72.7,61.5,30.07,ENE,65,9.0,9.0,68,0.00,CLR,,0.03,788.0,WeatherDisplay:10.37,2013-02-24 20:51:00,
2013-02-24 10:56:00,72.9,61.3,30.07,East,90,11.5,11.5,67,0.00,CLR,,0.03,798.0,WeatherDisplay:10.37,2013-02-24 20:56:00,
2013-02-24 11:01:00,73.1,61.5,30.06,ENE,66,6.9,6.9,67,0.00,CLR,,0.03,905.0,WeatherDisplay:10.37,2013-02-24 21:01:00,
2013-02-24 11:06:00,73.4,61.3,30.06,NNW,329,8.1,8.1,66,0.00,CLR,,0.03,833.0,WeatherDisplay:10.37,2013-02-24 21:06:00,
2013-02-24 11:11:00,73.4,61.3,30.06,NE,36,11.5,11.5,66,0.00,CLR,,0.03,981.0,WeatherDisplay:10.37,2013-02-24 21:11:00,
2013-02-24 11:16:00,73.4,61.8,30.06,ENE,59,10.0,10.0,67,0.00,SCT,,0.03,396.0,WeatherDisplay:10.37,2013-02-24 21:16:00,
2013-02-24 11:21:00,73.4,62.2,30.06,NE,54,11.5,11.5,68,0.00,CLR,,0.03,837.0,WeatherDisplay:10.37,2013-02-24 21:21:00,
2013-02-24 11:26:00,73.6,62.4,30.06,NE,44,9.2,9.2,68,0.00,CLR,,0.03,965.0,WeatherDisplay:10.37,2013-02-24 21:26:00,
2013-02-24 11:31:00,73.7,61.6,30.05,ENE,58,10.4,10.4,66,0.00,CLR,,0.03,861.0,WeatherDisplay:10.37,2013-02-24 21:31:00,
2013-02-24 11:36:00,73.8,61.7,30.06,ESE,118,10.4,10.4,66,0.00,CLR,,0.03,605.0,WeatherDisplay:10.37,2013-02-24 21:36:00,
2013-02-24 11:41:00,73.8,61.3,30.06,NE,55,12.7,12.7,65,0.00,BKN,,0.03,338.0,WeatherDisplay:10.37,2013-02-24 21:41:00,
2013-02-24 11:46:00,72.9,60.9,30.05,NE,51,12.7,12.7,66,0.00,CLR,,0.03,889.0,WeatherDisplay:10.37,2013-02-24 21:46:00,
2013-02-24 11:51:00,73.1,61.5,30.05,East,88,10.4,10.4,67,0.00,CLR,,0.03,995.0,WeatherDisplay:10.37,2013-02-24 21:51:00,
2013-02-24 11:56:00,73.1,61.5,30.05,East,82,10.4,10.4,67,0.00,CLR,,0.03,1014.0,WeatherDisplay:10.37,2013-02-24 21:56:00,
2013-02-24 12:01:00,73.4,61.8,30.05,North,5,11.5,11.5,67,0.00,CLR,,0.03,703.0,WeatherDisplay:10.37,2013-02-24 22:01:00,
2013-02-24 12:06:00,73.5,61.4,30.05,NE,36,11.5,11.5,66,0.00,CLR,,0.03,954.0,WeatherDisplay:10.37,2013-02-24 22:06:00,
2013-02-24 12:11:00,73.8,61.7,30.05,NNE,27,11.5,11.5,66,0.00,CLR,,0.03,937.0,WeatherDisplay:10.37,2013-02-24 22:11:00,
2013-02-24 12:16:00,74.0,61.0,30.04,NE,38,15.0,15.0,64,0.00,CLR,,0.03,1023.0,WeatherDisplay:10.37,2013-02-24 22:16:00,
2013-02-24 12:21:00,73.8,61.3,30.03,NNE,15,15.0,15.0,65,0.00,CLR,,0.03,687.0,WeatherDisplay:10.37,2013-02-24 22:21:00,
2013-02-24 12:26:00,73.7,60.8,30.03,ENE,59,18.4,18.4,64,0.00,CLR,,0.03,963.0,WeatherDisplay:10.37,2013-02-24 22:26:00,
2013-02-24 12:31:00,73.7,60.8,30.04,ENE,67,13.8,13.8,64,0.00,CLR,,0.03,963.0,WeatherDisplay:10.37,2013-02-24 22:31:00,
2013-02-24 12:36:00,73.9,61.0,30.03,ENE,78,11.5,11.5,64,0.00,CLR,,0.03,939.0,WeatherDisplay:10.37,2013-02-24 22:36:00,
2013-02-24 12:41:00,74.1,61.1,30.03,NE,54,18.4,18.4,64,0.00,CLR,,0.03,981.0,WeatherDisplay:10.37,2013-02-24 22:41:00,
2013-02-24 12:46:00,74.2,61.7,30.02,NE,53,12.7,12.7,65,0.00,CLR,,0.03,1093.0,WeatherDisplay:10.37,2013-02-24 22:46:00,
2013-02-24 12:51:00,74.7,62.1,30.02,NNE,22,6.0,6.0,65,0.00,CLR,,0.03,1069.0,WeatherDisplay:10.37,2013-02-24 22:51:00,
2013-02-24 12:56:00,74.4,61.4,30.02,ENE,62,6.9,6.9,64,0.00,CLR,,0.03,983.0,WeatherDisplay:10.37,2013-02-24 22:56:00,
2013-02-24 13:01:00,74.2,62.1,30.02,NE,37,10.4,10.4,66,0.00,CLR,,0.03,1213.0,WeatherDisplay:10.37,2013-02-24 23:01:00,
2013-02-24 13:06:00,74.2,62.1,30.02,NE,44,10.4,10.4,66,0.00,SCT,,0.03,489.0,WeatherDisplay:10.37,2013-02-24 23:06:00,
2013-02-24 13:11:00,74.1,61.1,30.02,East,86,15.0,15.0,64,0.00,CLR,,0.03,962.0,WeatherDisplay:10.37,2013-02-24 23:11:00,
2013-02-24 13:16:00,73.7,61.6,30.01,ENE,60,9.2,9.2,66,0.00,CLR,,0.03,925.0,WeatherDisplay:10.37,2013-02-24 23:16:00,
2013-02-24 13:21:00,73.7,62.1,30.01,East,86,11.5,11.5,67,0.00,CLR,,0.03,1004.0,WeatherDisplay:10.37,2013-02-24 23:21:00,
2013-02-24 13:26:00,74.1,62.0,30.01,East,85,11.5,11.5,66,0.00,CLR,,0.03,976.0,WeatherDisplay:10.37,2013-02-24 23:26:00,
2013-02-24 13:31:00,74.2,61.7,30.01,NE,55,10.4,10.4,65,0.00,OVC,,0.03,246.0,WeatherDisplay:10.37,2013-02-24 23:31:00,
2013-02-24 13:36:00,73.8,61.3,30.01,ENE,57,10.4,10.4,65,0.00,CLR,,0.03,1151.0,WeatherDisplay:10.37,2013-02-24 23:36:00,
2013-02-24 13:41:00,73.6,61.1,30.01,NE,44,10.4,10.4,65,0.00,OVC,,0.03,237.0,WeatherDisplay:10.37,2013-02-24 23:41:00,
2013-02-24 13:46:00,73.5,61.0,30.01,ENE,78,10.4,10.4,65,0.00,CLR,,0.03,1042.0,WeatherDisplay:10.37,2013-02-24 23:46:00,
2013-02-24 13:51:00,73.9,61.4,30.01,ENE,62,13.0,13.0,65,0.00,CLR,,0.03,965.0,WeatherDisplay:10.37,2013-02-24 23:51:00,
2013-02-24 13:56:00,74.2,62.1,30.01,ESE,115,11.5,11.5,66,0.00,BKN,,0.03,309.0,WeatherDisplay:10.37,2013-02-24 23:56:00,
2013-02-24 14:01:00,74.2,62.5,30.00,ENE,74,12.7,12.7,67,0.00,OVC,,0.03,244.0,WeatherDisplay:10.37,2013-02-25 00:01:00,
2013-02-24 14:06:00,73.8,62.2,30.00,East,99,11.5,11.5,67,0.00,OVC,,0.03,218.0,WeatherDisplay:10.37,2013-02-25 00:06:00,
2013-02-24 14:11:00,73.1,61.9,30.00,NNE,17,11.5,11.5,68,0.00,CLR,,0.03,928.0,WeatherDisplay:10.37,2013-02-25 00:11:00,
2013-02-24 14:16:00,73.1,61.9,30.00,ENE,57,11.5,11.5,68,0.00,CLR,,0.03,1005.0,WeatherDisplay:10.37,2013-02-25 00:16:00,
2013-02-24 14:21:00,73.2,62.0,30.00,East,88,6.9,6.9,68,0.00,CLR,,0.03,875.0,WeatherDisplay:10.37,2013-02-25 00:21:00,
2013-02-24 14:26:00,73.5,62.3,30.00,NE,53,12.0,12.0,68,0.00,CLR,,0.03,930.0,WeatherDisplay:10.37,2013-02-25 00:26:00,
2013-02-24 14:31:00,73.6,62.0,30.00,NNE,15,13.8,13.8,67,0.00,BKN,,0.03,355.0,WeatherDisplay:10.37,2013-02-25 00:31:00,
2013-02-24 14:36:00,72.7,61.9,30.00,NNE,31,11.5,11.5,69,0.00,OVC,,0.03,186.0,WeatherDisplay:10.37,2013-02-25 00:36:00,
2013-02-24 14:41:00,72.0,62.5,30.00,NNE,22,10.4,10.4,72,0.00,SCT,,0.03,404.0,WeatherDisplay:10.37,2013-02-25 00:41:00,
2013-02-24 14:46:00,71.8,62.3,29.99,NE,43,10.4,10.4,72,0.00,CLR,,0.03,1023.0,WeatherDisplay:10.37,2013-02-25 00:46:00,
2013-02-24 14:51:00,72.1,62.6,29.99,ENE,70,9.0,9.0,72,0.00,CLR,,0.03,1023.0,WeatherDisplay:10.37,2013-02-25 00:51:00,
2013-02-24 14:56:00,72.0,61.7,29.99,NNE,32,11.5,11.5,70,0.00,BKN,,0.03,327.0,WeatherDisplay:10.37,2013-02-25 00:56:00,
2013-02-24 15:01:00,71.6,61.7,29.99,North,5,11.5,11.5,71,0.00,BKN,,0.03,360.0,WeatherDisplay:10.37,2013-02-25 01:01:00,
2013-02-24 15:06:00,71.5,61.6,29.99,SE,132,11.5,11.5,71,0.00,FEW,,0.03,431.0,WeatherDisplay:10.37,2013-02-25 01:06:00,
2013-02-24 15:11:00,71.5,62.0,29.99,ENE,66,8.1,8.1,72,0.00,SCT,,0.03,385.0,WeatherDisplay:10.37,2013-02-25 01:11:00,
2013-02-24 15:16:00,71.5,61.6,29.99,NE,50,9.2,9.2,71,0.00,BKN,,0.03,262.0,WeatherDisplay:10.37,2013-02-25 01:16:00,
2013-02-24 15:21:00,71.3,61.4,29.99,North,10,10.4,10.4,71,0.00,BKN,,0.03,265.0,WeatherDisplay:10.37,2013-02-25 01:21:00,
2013-02-24 15:26:00,71.1,61.2,29.98,ESE,109,11.5,11.5,71,0.00,SCT,,0.03,327.0,WeatherDisplay:10.37,2013-02-25 01:26:00,
2013-02-24 15:31:00,71.0,61.1,29.98,East,99,10.4,10.4,71,0.00,SCT,,0.03,886.0,WeatherDisplay:10.37,2013-02-25 01:31:00,
2013-02-24 15:36:00,71.4,61.9,29.98,East,96,10.4,10.4,72,0.00,BKN,,0.03,200.0,WeatherDisplay:10.37,2013-02-25 01:36:00,
2013-02-24 15:41:00,71.3,61.4,29.98,ENE,75,10.4,10.4,71,0.00,BKN,,0.03,214.0,WeatherDisplay:10.37,2013-02-25 01:41:00,
2013-02-24 15:46:00,71.5,62.0,29.98,ENE,59,6.9,6.9,72,0.00,CLR,,0.03,752.0,WeatherDisplay:10.37,2013-02-25 01:46:00,
2013-02-24 15:51:00,71.5,61.6,29.98,NE,53,11.5,11.5,71,0.00,OVC,,0.03,142.0,WeatherDisplay:10.37,2013-02-25 01:51:00,
2013-02-24 15:56:00,71.2,61.3,29.98,NE,53,11.5,11.5,71,0.00,SCT,,0.03,255.0,WeatherDisplay:10.37,2013-02-25 01:56:00,
2013-02-24 16:01:00,71.2,61.3,29.98,NE,42,10.4,10.4,71,0.00,BKN,,0.03,225.0,WeatherDisplay:10.37,2013-02-25 02:01:00,
2013-02-24 16:06:00,71.2,61.3,29.98,ENE,63,9.2,9.2,71,0.00,CLR,,0.03,554.0,WeatherDisplay:10.37,2013-02-25 02:06:00,
2013-02-24 16:11:00,71.4,61.5,29.98,ESE,119,12.7,12.7,71,0.00,BKN,,0.03,545.0,WeatherDisplay:10.37,2013-02-25 02:11:00,
2013-02-24 16:16:00,71.5,62.0,29.98,ENE,67,12.7,12.7,72,0.00,CLR,,0.03,454.0,WeatherDisplay:10.37,2013-02-25 02:16:00,
2013-02-24 16:21:00,71.4,61.5,29.98,ENE,63,11.5,11.5,71,0.00,BKN,,0.03,128.0,WeatherDisplay:10.37,2013-02-25 02:21:00,
2013-02-24 16:26:00,71.0,61.5,29.98,NNW,332,15.0,15.0,72,0.00,CLR,,0.03,476.0,WeatherDisplay:10.37,2013-02-25 02:26:00,
2013-02-24 16:31:00,71.0,61.9,29.99,ENE,69,8.1,8.1,73,0.00,CLR,,0.03,508.0,WeatherDisplay:10.37,2013-02-25 02:31:00,
2013-02-24 16:36:00,71.0,61.5,29.99,NNE,15,11.5,11.5,72,0.00,CLR,,0.03,436.0,WeatherDisplay:10.37,2013-02-25 02:36:00,
2013-02-24 16:41:00,70.8,61.3,29.99,NE,50,9.2,9.2,72,0.00,CLR,,0.03,429.0,WeatherDisplay:10.37,2013-02-25 02:41:00,
2013-02-24 16:46:00,70.6,61.5,29.99,NE,47,11.5,11.5,73,0.00,CLR,,0.03,385.0,WeatherDisplay:10.37,2013-02-25 02:46:00,
2013-02-24 16:51:00,70.6,61.5,29.98,NNE,30,13.8,13.8,73,0.00,CLR,,0.03,374.0,WeatherDisplay:10.37,2013-02-25 02:51:00,
2013-02-24 16:56:00,70.5,61.4,29.98,ENE,73,9.2,9.2,73,0.00,CLR,,0.03,348.0,WeatherDisplay:10.37,2013-02-25 02:56:00,
2013-02-24 17:01:00,70.4,61.3,29.99,NE,46,13.8,13.8,73,0.00,CLR,,0.03,329.0,WeatherDisplay:10.37,2013-02-25 03:01:00,
2013-02-24 17:06:00,70.3,61.6,29.99,NNE,28,10.0,10.0,74,0.00,CLR,,0.03,302.0,WeatherDisplay:10.37,2013-02-25 03:06:00,
2013-02-24 17:11:00,70.2,61.5,29.99,East,90,11.5,11.5,74,0.00,CLR,,0.03,248.0,WeatherDisplay:10.37,2013-02-25 03:11:00,
2013-02-24 17:16:00,70.2,61.5,29.99,ENE,78,16.0,16.0,74,0.00,CLR,,0.03,250.0,WeatherDisplay:10.37,2013-02-25 03:16:00,
2013-02-24 17:21:00,69.9,61.2,29.99,NE,36,15.0,15.0,74,0.00,CLR,,0.03,250.0,WeatherDisplay:10.37,2013-02-25 03:21:00,
2013-02-24 17:26:00,69.7,61.4,29.99,North,349,15.0,15.0,75,0.00,CLR,,0.03,213.0,WeatherDisplay:10.37,2013-02-25 03:26:00,
2013-02-24 17:31:00,69.6,61.3,30.00,ENE,59,8.1,8.1,75,0.00,CLR,,0.03,186.0,WeatherDisplay:10.37,2013-02-25 03:31:00,
2013-02-24 17:36:00,69.5,61.2,30.00,ENE,61,9.2,9.2,75,0.00,CLR,,0.03,169.0,WeatherDisplay:10.37,2013-02-25 03:36:00,
2013-02-24 17:41:00,69.3,61.0,30.00,NE,52,12.7,12.7,75,0.00,CLR,,0.03,146.0,WeatherDisplay:10.37,2013-02-25 03:41:00,
2013-02-24 17:46:00,69.2,60.9,29.99,ENE,69,8.1,8.1,75,0.00,CLR,,0.03,123.0,WeatherDisplay:10.37,2013-02-25 03:46:00,
2013-02-24 17:51:00,69.1,60.8,30.00,East,82,9.2,9.2,75,0.00,CLR,,0.03,160.0,WeatherDisplay:10.37,2013-02-25 03:51:00,
2013-02-24 17:56:00,69.2,61.3,30.00,NE,54,12.7,12.7,76,0.00,CLR,,0.03,102.0,WeatherDisplay:10.37,2013-02-25 03:56:00,
2013-02-24 18:01:00,69.2,61.3,30.01,ENE,67,10.4,10.4,76,0.00,CLR,,0.03,62.0,WeatherDisplay:10.37,2013-02-25 04:01:00,
2013-02-24 18:06:00,69.1,61.6,30.01,East,91,11.5,11.5,77,0.00,BKN,,0.03,28.0,WeatherDisplay:10.37,2013-02-25 04:06:00,
2013-02-24 18:11:00,68.6,61.1,30.01,NNW,339,10.4,10.4,77,0.00,BKN,,0.03,19.0,WeatherDisplay:10.37,2013-02-25 04:11:00,
2013-02-24 18:16:00,68.3,61.2,30.01,NE,55,11.5,11.5,78,0.00,BKN,,0.03,16.0,WeatherDisplay:10.37,2013-02-25 04:16:00,
2013-02-24 18:21:00,68.0,60.9,30.01,NE,40,10.4,10.4,78,0.00,BKN,,0.03,14.0,WeatherDisplay:10.37,2013-02-25 04:21:00,
2013-02-24 18:26:00,67.7,61.0,30.01,ENE,57,11.5,11.5,79,0.00,SCT,,0.03,12.0,WeatherDisplay:10.37,2013-02-25 04:26:00,
2013-02-24 18:31:00,67.5,60.8,30.01,NE,46,8.1,8.1,79,0.00,CLR,,0.03,9.0,WeatherDisplay:10.37,2013-02-25 04:31:00,
2013-02-24 18:36:00,67.2,60.5,30.01,NE,35,8.1,8.1,79,0.00,CLR,,0.03,5.0,WeatherDisplay:10.37,2013-02-25 04:36:00,
2013-02-24 18:41:00,67.0,60.3,30.01,ENE,60,10.4,10.4,79,0.00,CLR,,0.03,0.0,WeatherDisplay:10.37,2013-02-25 04:41:00,
2013-02-24 18:46:00,66.9,60.2,30.02,NNE,15,11.5,11.5,79,0.00,CLR,,0.03,0.0,WeatherDisplay:10.37,2013-02-25 04:46:00,
2013-02-24 18:51:00,66.8,60.1,30.02,ENE,65,11.5,11.5,79,0.00,CLR,,0.03,0.0,WeatherDisplay:10.37,2013-02-25 04:51:00,
2013-02-24 18:56:00,66.8,60.1,30.02,ENE,59,10.4,10.4,79,0.00,CLR,,0.03,0.0,WeatherDisplay:10.37,2013-02-25 04:56:00,
2013-02-24 19:00:00,66.8,60.1,30.02,North,360,11.5,11.5,79,0.00,CLR,,0.03,0.0,WeatherDisplay:10.37,2013-02-25 05:00:00,
2013-02-24 19:05:00,66.8,60.1,30.02,NE,38,11.5,11.5,79,0.00,CLR,,0.03,0.0,WeatherDisplay:10.37,2013-02-25 05:05:00,
2013-02-24 19:10:00,66.8,60.1,30.02,North,349,9.2,9.2,79,0.00,CLR,,0.03,0.0,WeatherDisplay:10.37,2013-02-25 05:10:00,
2013-02-24 19:15:00,66.7,60.0,30.02,NNE,24,13.8,13.8,79,0.00,CLR,,0.03,0.0,WeatherDisplay:10.37,2013-02-25 05:15:00,
2013-02-24 19:20:00,66.7,60.0,30.02,NE,34,11.5,11.5,79,0.00,CLR,,0.03,0.0,WeatherDisplay:10.37,2013-02-25 05:20:00,
2013-02-24 19:25:00,66.7,60.0,30.03,NE,40,10.0,10.0,79,0.00,CLR,,0.03,0.0,WeatherDisplay:10.37,2013-02-25 05:25:00,
2013-02-24 19:30:00,66.7,60.0,30.02,East,86,5.8,5.8,79,0.00,CLR,,0.03,0.0,WeatherDisplay:10.37,2013-02-25 05:30:00,
2013-02-24 19:35:00,66.7,60.3,30.02,NE,53,12.7,12.7,80,0.00,CLR,,0.03,0.0,WeatherDisplay:10.37,2013-02-25 05:35:00,
2013-02-24 19:40:00,66.6,60.2,30.02,ENE,61,11.5,11.5,80,0.00,CLR,,0.03,0.0,WeatherDisplay:10.37,2013-02-25 05:40:00,
2013-02-24 19:45:00,66.5,60.1,30.03,NE,55,10.4,10.4,80,0.00,CLR,,0.03,0.0,WeatherDisplay:10.37,2013-02-25 05:45:00,
2013-02-24 19:50:00,66.4,60.0,30.03,ENE,72,8.1,8.1,80,0.00,CLR,,0.03,0.0,WeatherDisplay:10.37,2013-02-25 05:50:00,
2013-02-24 19:55:00,66.4,60.4,30.04,ENE,61,10.4,10.4,81,0.00,CLR,,0.03,0.0,WeatherDisplay:10.37,2013-02-25 05:55:00,
2013-02-24 20:00:00,66.3,60.3,30.04,NE,38,9.2,9.2,81,0.00,CLR,,0.03,0.0,WeatherDisplay:10.37,2013-02-25 06:00:00,
2013-02-24 20:05:00,66.2,60.2,30.04,NE,37,12.7,12.7,81,0.00,CLR,,0.03,0.0,WeatherDisplay:10.37,2013-02-25 06:05:00,
2013-02-24 20:10:00,66.2,60.2,30.04,NE,53,11.5,11.5,81,0.00,CLR,,0.03,0.0,WeatherDisplay:10.37,2013-02-25 06:10:00,
2013-02-24 20:15:00,66.1,60.1,30.05,NE,41,11.5,11.5,81,0.00,CLR,,0.03,0.0,WeatherDisplay:10.37,2013-02-25 06:15:00,
2013-02-24 20:20:00,66.0,60.3,30.05,NNE,16,18.4,18.4,82,0.00,CLR,,0.03,0.0,WeatherDisplay:10.37,2013-02-25 06:20:00,
2013-02-24 20:25:00,66.1,60.1,30.05,NNW,348,11.5,11.5,81,0.00,CLR,,0.03,0.0,WeatherDisplay:10.37,2013-02-25 06:25:00,
2013-02-24 20:30:00,66.1,60.1,30.05,NNE,22,11.5,11.5,81,0.00,CLR,,0.03,0.0,WeatherDisplay:10.37,2013-02-25 06:30:00,
2013-02-24 20:35:00,66.2,60.2,30.06,NNE,30,5.0,5.0,81,0.00,CLR,,0.03,0.0,WeatherDisplay:10.37,2013-02-25 06:35:00,
2013-02-24 20:40:00,66.1,60.1,30.06,NE,44,10.4,10.4,81,0.00,CLR,,0.03,0.0,WeatherDisplay:10.37,2013-02-25 06:40:00,
2013-02-24 20:45:00,66.0,60.3,30.06,ENE,65,12.7,12.7,82,0.00,CLR,,0.03,0.0,WeatherDisplay:10.37,2013-02-25 06:45:00,
2013-02-24 20:50:00,65.9,59.9,30.06,North,360,12.7,12.7,81,0.00,CLR,,0.03,0.0,WeatherDisplay:10.37,2013-02-25 06:50:00,
2013-02-24 20:55:00,65.9,59.9,30.06,ENE,69,10.4,10.4,81,0.00,CLR,,0.03,0.0,WeatherDisplay:10.37,2013-02-25 06:55:00,
2013-02-24 21:00:00,65.9,59.9,30.06,NW,323,11.5,11.5,81,0.00,CLR,,0.03,0.0,WeatherDisplay:10.37,2013-02-25 07:00:00,
2013-02-24 21:05:00,65.9,59.9,30.07,ENE,77,10.0,10.0,81,0.00,CLR,,0.03,0.0,WeatherDisplay:10.37,2013-02-25 07:05:00,
2013-02-24 21:10:00,66.0,60.0,30.07,NE,49,8.1,8.1,81,0.00,CLR,,0.03,0.0,WeatherDisplay:10.37,2013-02-25 07:10:00,
2013-02-24 21:15:00,66.1,60.1,30.07,ENE,59,9.2,9.2,81,0.00,CLR,,0.03,0.0,WeatherDisplay:10.37,2013-02-25 07:15:00,
2013-02-24 21:20:00,66.1,60.1,30.08,ENE,65,10.4,10.4,81,0.00,CLR,,0.03,0.0,WeatherDisplay:10.37,2013-02-25 07:20:00,
2013-02-24 21:25:00,66.1,60.1,30.08,NE,49,8.1,8.1,81,0.00,CLR,,0.03,0.0,WeatherDisplay:10.37,2013-02-25 07:25:00,
2013-02-24 21:30:00,66.0,60.0,30.08,NNE,28,10.4,10.4,81,0.00,CLR,,0.03,0.0,WeatherDisplay:10.37,2013-02-25 07:30:00,
2013-02-24 21:35:00,66.0,60.0,30.08,NE,53,6.9,6.9,81,0.00,CLR,,0.03,0.0,WeatherDisplay:10.37,2013-02-25 07:35:00,
2013-02-24 21:40:00,65.9,59.9,30.08,NE,46,10.4,10.4,81,0.00,CLR,,0.03,0.0,WeatherDisplay:10.37,2013-02-25 07:40:00,
2013-02-24 21:45:00,65.9,59.9,30.08,NE,38,11.5,11.5,81,0.00,CLR,,0.03,0.0,WeatherDisplay:10.37,2013-02-25 07:45:00,
2013-02-24 21:50:00,65.9,59.6,30.08,East,91,11.5,11.5,80,0.00,CLR,,0.03,0.0,WeatherDisplay:10.37,2013-02-25 07:50:00,
2013-02-24 21:55:00,66.0,59.7,30.09,ENE,62,11.5,11.5,80,0.00,CLR,,0.03,0.0,WeatherDisplay:10.37,2013-02-25 07:55:00,
2013-02-24 22:00:00,66.0,59.7,30.08,NNE,24,10.0,10.0,80,0.00,CLR,,0.03,0.0,WeatherDisplay:10.37,2013-02-25 08:00:00,
2013-02-24 22:05:00,66.0,59.7,30.08,NE,44,10.0,10.0,80,0.00,CLR,,0.03,0.0,WeatherDisplay:10.37,2013-02-25 08:05:00,
2013-02-24 22:10:00,66.0,59.3,30.09,NE,54,8.0,8.0,79,0.00,CLR,,0.03,0.0,WeatherDisplay:10.37,2013-02-25 08:10:00,
2013-02-24 22:15:00,65.9,59.2,30.09,North,5,9.2,9.2,79,0.00,CLR,,0.03,0.0,WeatherDisplay:10.37,2013-02-25 08:15:00,
2013-02-24 22:20:00,65.9,59.2,30.08,NE,38,8.1,8.1,79,0.00,CLR,,0.03,0.0,WeatherDisplay:10.37,2013-02-25 08:20:00,
2013-02-24 22:25:00,65.8,59.1,30.08,North,11,10.4,10.4,79,0.00,CLR,,0.03,0.0,WeatherDisplay:10.37,2013-02-25 08:25:00,
2013-02-24 22:30:00,65.8,59.1,30.08,NE,56,9.2,9.2,79,0.00,CLR,,0.03,0.0,WeatherDisplay:10.37,2013-02-25 08:30:00,
2013-02-24 22:35:00,65.7,59.0,30.08,ENE,61,11.5,11.5,79,0.00,CLR,,0.03,0.0,WeatherDisplay:10.37,2013-02-25 08:35:00,
2013-02-24 22:40:00,65.6,58.9,30.08,NE,34,12.7,12.7,79,0.00,CLR,,0.03,0.0,WeatherDisplay:10.37,2013-02-25 08:40:00,
2013-02-24 22:45:00,65.6,58.9,30.08,ENE,57,11.5,11.5,79,0.00,CLR,,0.03,0.0,WeatherDisplay:10.37,2013-02-25 08:45:00,
2013-02-24 22:50:00,65.6,58.9,30.08,ENE,69,11.0,11.0,79,0.00,CLR,,0.03,0.0,WeatherDisplay:10.37,2013-02-25 08:50:00,
2013-02-24 22:55:00,65.6,58.9,30.08,NE,53,12.7,12.7,79,0.00,CLR,,0.03,0.0,WeatherDisplay:10.37,2013-02-25 08:55:00,
2013-02-24 23:00:00,65.6,58.9,30.08,NE,49,10.4,10.4,79,0.00,CLR,,0.03,0.0,WeatherDisplay:10.37,2013-02-25 09:00:00,
2013-02-24 23:05:00,65.7,59.0,30.08,North,5,15.0,15.0,79,0.00,CLR,,0.03,0.0,WeatherDisplay:10.37,2013-02-25 09:05:00,
2013-02-24 23:10:00,65.6,58.9,30.08,ENE,62,11.5,11.5,79,0.00,CLR,,0.03,0.0,WeatherDisplay:10.37,2013-02-25 09:10:00,
2013-02-24 23:15:00,65.6,58.9,30.08,ENE,70,10.4,10.4,79,0.00,CLR,,0.03,0.0,WeatherDisplay:10.37,2013-02-25 09:15:00,
2013-02-24 23:20:00,65.4,58.7,30.08,ENE,57,11.5,11.5,79,0.00,CLR,,0.03,0.0,WeatherDisplay:10.37,2013-02-25 09:20:00,
2013-02-24 23:25:00,65.4,58.7,30.08,NE,52,11.5,11.5,79,0.00,CLR,,0.03,0.0,WeatherDisplay:10.37,2013-02-25 09:25:00,
2013-02-24 23:30:00,65.4,58.7,30.08,North,11,11.5,11.5,79,0.00,CLR,,0.03,0.0,WeatherDisplay:10.37,2013-02-25 09:30:00,
2013-02-24 23:35:00,65.4,59.1,30.08,ENE,67,8.1,8.1,80,0.00,CLR,,0.03,0.0,WeatherDisplay:10.37,2013-02-25 09:35:00,
2013-02-24 23:40:00,65.4,59.1,30.08,NNE,17,9.2,9.2,80,0.00,CLR,,0.03,0.0,WeatherDisplay:10.37,2013-02-25 09:40:00,
2013-02-24 23:45:00,65.4,59.1,30.08,North,355,10.4,10.4,80,0.00,CLR,,0.03,0.0,WeatherDisplay:10.37,2013-02-25 09:45:00,
2013-02-24 23:50:00,65.4,59.1,30.08,ENE,69,10.0,10.0,80,0.00,CLR,,0.03,0.0,WeatherDisplay:10.37,2013-02-25 09:50:00,
2013-02-24 23:55:00,65.5,59.2,30.08,NNE,22,11.5,11.5,80,0.00,CLR,,0.03,0.0,WeatherDisplay:10.37,2013-02-25 09:55:00,